(180361) = 2003 YS93

Discovered at Socorro on 2003-12-21 by LINEAR.

Orbit

Orbit type: Main Belt

Note: WebGL enabled browser required.

epoch2022-01-21.0
epoch JD2459600.5
perihelion date2021-10-26.93005
perihelion JD2459514.43006
argument of perihelion (°)2.55877
ascending node (°)94.98722
inclination (°)5.59005
eccentricity0.1001655
perihelion distance (AU)2.1004753
Tisserand w.r.t. Jupiter3.6
ΔV w.r.t. Earth (km/sec)9.2
semimajor axis (AU)2.3342906
mean anomaly (°)23.78609
mean daily motion (°/day)0.27635760
aphelion distance (AU)2.568
period (years)3.57
P-vector [x]-0.13111048
P-vector [y]0.90782354
P-vector [z]0.39832959
Q-vector [x]-0.98660683
Q-vector [y]-0.15881547
Q-vector [z]0.03721022
absolute magnitude16.85
phase slope0.15
uncertainty0
referenceMPO 694893
observations used578
oppositions15
arc length (days)9205
first opposition used1997
last opposition used2022
residual rms (arc-secs)0.77
perturbers coarse indicatorM-v
perturbers precise indicator003Ek
first observation date used1997-01-13.0
last observation date used2022-03-28.0
computer namePan
JD of orbit computation2456612.723197
perihelion JD uncertainty (days)1.8204E-04
argument of perihelion uncertainty (°)9.3500E-05
ascending node uncertainty (°)8.0448E-05
inclination uncertainty (°)5.8983E-06
eccentricity uncertainty 6.0283E-08
perihelion distance uncertainty (AU)1.4940E-07
Minimum Orbit Intersection Distances (in AU)
for orbit epoch: 2459600.5, reference: E2022-B04
Mercury1.78888
Venus1.38134
Earth1.11726
Mars0.48131
Jupiter2.55551
Saturn6.97198
Uranus16.1343
Neptune27.5406

Observations

588 total observations over interval: 1997 01 13.48942 – 2022 03 28.201144
These data are available for download (format description).

Date (UT) J2000 RA J2000 Dec Magn Location Ref
1997 01 13.48942 08 37 41.03 +23 01 40.9 19.5 V 566 – Haleakala-NEAT/GEODSS MPS 139320
1997 01 13.49783 08 37 40.55 +23 01 44.5 20.1 V 566 – Haleakala-NEAT/GEODSS MPS 139320
1997 01 13.56920 08 37 36.22 +23 02 15.9 20.4 V 566 – Haleakala-NEAT/GEODSS MPS 139320
1997 02 04.40267 08 15 18.43 +25 25 23.5 19.8 V 566 – Haleakala-NEAT/GEODSS MPS 139320
1997 02 04.41304 08 15 17.77 +25 25 26.7 19.8 V 566 – Haleakala-NEAT/GEODSS MPS 139320
1997 02 04.42285 08 15 17.13 +25 25 29.6 20.2 V 566 – Haleakala-NEAT/GEODSS MPS 139320
1999 10 09.26491 01 48 37.65 +00 56 57.5 19.3   704 – Lincoln Laboratory ETS, New Mexico MPS 139320
1999 10 09.28047 01 48 36.81 +00 56 51.5 19.6   704 – Lincoln Laboratory ETS, New Mexico MPS 139320
1999 10 09.29592 01 48 35.96 +00 56 48.3 19.1   704 – Lincoln Laboratory ETS, New Mexico MPS 139320
1999 10 09.31135 01 48 35.08 +00 56 43.3 19.3   704 – Lincoln Laboratory ETS, New Mexico MPS 139320
2001 04 16.195810 12 51 33.895 +04 38 47.91 20.41 V 645 – Apache Point-Sloan Digital Sky Survey MPS 139321
2001 04 16.199282 12 51 33.706 +04 38 48.61 21.41   645 – Apache Point-Sloan Digital Sky Survey MPS 139321
2003 12 21.33397 06 50 58.98 +23 02 19.8 18.9   704 – Lincoln Laboratory ETS, New Mexico MPS 94975
2003 12 21.33963 06 50 58.67 +23 02 21.0 18.5   704 – Lincoln Laboratory ETS, New Mexico MPS 94975
2003 12 21.34703 06 50 58.15 +23 02 23.9 19.1   704 – Lincoln Laboratory ETS, New Mexico MPS 94975
2003 12 21.35269 06 50 57.83 +23 02 25.0 18.5   704 – Lincoln Laboratory ETS, New Mexico MPS 94975
2003 12 21.36013 06 50 57.31 +23 02 28.0 19.0   704 – Lincoln Laboratory ETS, New Mexico MPS 94975
2003 12 21.36579 06 50 56.99 +23 02 28.3 18.6   704 – Lincoln Laboratory ETS, New Mexico MPS 94975
2003 12 21.37342 06 50 56.41 +23 02 32.6 19.0   704 – Lincoln Laboratory ETS, New Mexico MPS 94975
2003 12 21.37925 06 50 56.15 +23 02 32.5 18.7   704 – Lincoln Laboratory ETS, New Mexico MPS 94975
2003 12 21.38724 06 50 55.58 +23 02 36.4 19.1   704 – Lincoln Laboratory ETS, New Mexico MPS 94975
2003 12 22.33351 06 49 57.34 +23 07 17.4 18.6   704 – Lincoln Laboratory ETS, New Mexico MPS 94975
2003 12 22.33370 06 49 57.29 +23 07 18.0 19.0   704 – Lincoln Laboratory ETS, New Mexico MPS 94975
2003 12 22.34644 06 49 56.48 +23 07 20.8 18.7   704 – Lincoln Laboratory ETS, New Mexico MPS 94975
2003 12 22.34662 06 49 56.39 +23 07 21.2 19.2   704 – Lincoln Laboratory ETS, New Mexico MPS 94975
2003 12 22.35951 06 49 55.64 +23 07 25.1 18.8   704 – Lincoln Laboratory ETS, New Mexico MPS 94975
2003 12 22.35970 06 49 55.57 +23 07 25.3 19.2   704 – Lincoln Laboratory ETS, New Mexico MPS 94975
2003 12 22.37275 06 49 54.76 +23 07 28.9 18.9   704 – Lincoln Laboratory ETS, New Mexico MPS 94975
2003 12 22.37293 06 49 54.74 +23 07 29.2 19.1   704 – Lincoln Laboratory ETS, New Mexico MPS 94975
2003 12 22.38571 06 49 53.86 +23 07 33.0 19.2   704 – Lincoln Laboratory ETS, New Mexico MPS 94975
2003 12 22.38590 06 49 53.92 +23 07 33.5 19.7   704 – Lincoln Laboratory ETS, New Mexico MPS 94975
2003 12 27.28909 06 44 38.04 +23 31 54.6 19.0   704 – Lincoln Laboratory ETS, New Mexico MPS 95906
2003 12 27.30216 06 44 37.09 +23 31 58.9 19.0   704 – Lincoln Laboratory ETS, New Mexico MPS 95906
2003 12 27.31582 06 44 36.27 +23 32 02.0 18.9   704 – Lincoln Laboratory ETS, New Mexico MPS 95906
2003 12 27.32888 06 44 35.27 +23 32 06.1 19.0   704 – Lincoln Laboratory ETS, New Mexico MPS 95906
2004 01 21.24266 06 19 08.69 +25 18 03.4 19.4   704 – Lincoln Laboratory ETS, New Mexico MPS 97057
2004 01 21.25538 06 19 08.05 +25 18 06.0 20.0   704 – Lincoln Laboratory ETS, New Mexico MPS 97057
2004 01 21.26856 06 19 07.53 +25 18 08.9 20.4   704 – Lincoln Laboratory ETS, New Mexico MPS 97057
2004 01 21.28141 06 19 06.85 +25 18 10.5 20.4   704 – Lincoln Laboratory ETS, New Mexico MPS 97057
2004 01 21.29439 06 19 06.14 +25 18 13.0 19.7   704 – Lincoln Laboratory ETS, New Mexico MPS 97057
2004 01 30.10077 06 13 43.64 +25 44 23.1 20.0 V 691 – Steward Observatory, Kitt Peak-Spacewatch MPS 97854
2004 01 30.12798 06 13 42.83 +25 44 27.6 20.4 V 691 – Steward Observatory, Kitt Peak-Spacewatch MPS 97854
2004 01 30.16223 06 13 41.84 +25 44 33.3 19.7 V 691 – Steward Observatory, Kitt Peak-Spacewatch MPS 97854
2005 05 20.38611 16 32 01.93 -17 12 23.7 19.6 V G96 – Mt. Lemmon Survey MPS 149513
2005 05 20.39272 16 32 01.50 -17 12 23.3 19.5 V G96 – Mt. Lemmon Survey MPS 149513
2005 05 20.39933 16 32 01.06 -17 12 23.0 19.6 V G96 – Mt. Lemmon Survey MPS 149514
2005 05 20.40604 16 32 00.67 -17 12 22.7 19.4 V G96 – Mt. Lemmon Survey MPS 149514
2006 09 19.32142 00 36 10.11 -06 41 42.9 19.1 V 703 – Catalina Sky Survey MPS 179306
2006 09 19.33464 00 36 09.43 -06 41 48.1 19.6 V 703 – Catalina Sky Survey MPS 179306
2006 09 19.34786 00 36 08.67 -06 41 53.2 20.1 V 703 – Catalina Sky Survey MPS 179306
2006 09 19.36108 00 36 08.02 -06 42 00.2 20.2 V 703 – Catalina Sky Survey MPS 179306
2006 09 26.34730 00 29 49.12 -07 28 15.7 19.4 V 703 – Catalina Sky Survey MPS 181008
2006 09 26.35568 00 29 48.69 -07 28 20.6 19.1 V 703 – Catalina Sky Survey MPS 181008
2006 09 26.36403 00 29 48.22 -07 28 22.6 19.3 V 703 – Catalina Sky Survey MPS 181008
2006 09 26.37237 00 29 47.68 -07 28 25.2 19.1 V 703 – Catalina Sky Survey MPS 181008
2006 10 02.30416 00 24 12.31 -08 03 51.1 19.3 V 703 – Catalina Sky Survey MPS 182648
2006 10 02.31258 00 24 11.84 -08 03 53.7 19.9 V 703 – Catalina Sky Survey MPS 182648
2006 10 02.32102 00 24 11.37 -08 03 58.6 19.0 V 703 – Catalina Sky Survey MPS 182648
2006 10 02.32941 00 24 10.94 -08 04 02.2 19.4 V 703 – Catalina Sky Survey MPS 182648
2006 10 12.22358 00 15 09.79 -08 50 17.9 20.4 R 644 – Palomar Mountain/NEAT MPS 182917
2006 10 12.24403 00 15 08.68 -08 50 22.1 19.1 R 644 – Palomar Mountain/NEAT MPS 182917
2006 10 12.26454 00 15 07.57 -08 50 27.1 20.0 R 644 – Palomar Mountain/NEAT MPS 182917
2008 02 11.46905 12 16 04.40 +07 32 13.0   691 – Steward Observatory, Kitt Peak-Spacewatch MPS 237492
2008 02 11.48667 12 16 04.05 +07 32 19.7   691 – Steward Observatory, Kitt Peak-Spacewatch MPS 237492
2008 02 11.50431 12 16 03.71 +07 32 25.3   691 – Steward Observatory, Kitt Peak-Spacewatch MPS 237492
2008 02 13.33424 12 15 29.40 +07 43 34.2 20.3 C 704 – Lincoln Laboratory ETS, New Mexico MPS 288966
2008 02 13.35850 12 15 28.82 +07 43 43.9 20.2 C 704 – Lincoln Laboratory ETS, New Mexico MPS 288966
2008 02 13.37054 12 15 28.53 +07 43 47.9 19.6 C 704 – Lincoln Laboratory ETS, New Mexico MPS 288966
2008 02 13.38262 12 15 28.32 +07 43 52.5 19.0 C 704 – Lincoln Laboratory ETS, New Mexico MPS 288966
2008 03 02.44276 12 04 37.27 +09 52 49.5 19.4 V G96 – Mt. Lemmon Survey MPS 240693
2008 03 02.44946 12 04 36.91 +09 52 52.5 18.8 V G96 – Mt. Lemmon Survey MPS 240693
2008 03 02.45626 12 04 36.58 +09 52 55.7 18.9 V G96 – Mt. Lemmon Survey MPS 240693
2008 03 02.46302 12 04 36.22 +09 52 58.6 19.0 V G96 – Mt. Lemmon Survey MPS 240693
2008 03 07.28899 12 00 27.79 +10 29 15.6 19.1 V 703 – Catalina Sky Survey MPS 242065
2008 03 07.30147 12 00 27.07 +10 29 20.6 19.3 V 703 – Catalina Sky Survey MPS 242065
2008 03 07.31398 12 00 26.31 +10 29 26.4 19.3 V 703 – Catalina Sky Survey MPS 242065
2008 03 07.32846 12 00 25.59 +10 29 32.4 19.3   704 – Lincoln Laboratory ETS, New Mexico MPS 242065
2008 03 07.33993 12 00 24.97 +10 29 37.8 19.8   704 – Lincoln Laboratory ETS, New Mexico MPS 242065
2008 03 07.35133 12 00 24.36 +10 29 43.1 19.7   704 – Lincoln Laboratory ETS, New Mexico MPS 242065
2008 03 07.37387 12 00 23.05 +10 29 52.8 19.6   704 – Lincoln Laboratory ETS, New Mexico MPS 242065
2008 03 08.25057 11 59 35.88 +10 36 19.4 19.8 V G96 – Mt. Lemmon Survey MPS 242065
2008 03 08.25554 11 59 35.59 +10 36 21.8 19.4 V G96 – Mt. Lemmon Survey MPS 242065
2008 03 08.26058 11 59 35.30 +10 36 23.7 19.9 V G96 – Mt. Lemmon Survey MPS 242065
2008 03 08.26558 11 59 35.05 +10 36 26.0 19.8 V G96 – Mt. Lemmon Survey MPS 242065
2008 03 13.30496 11 54 53.94 +11 12 13.1 19.5   704 – Lincoln Laboratory ETS, New Mexico MPS 242065
2008 03 13.31608 11 54 53.24 +11 12 17.8 20.0   704 – Lincoln Laboratory ETS, New Mexico MPS 242065
2008 03 13.32716 11 54 52.55 +11 12 21.5 19.7   704 – Lincoln Laboratory ETS, New Mexico MPS 242065
